Theta_e
329 323 317 315 297 295 292 297 304 304 305 310 312 315 314 321 320 314 331 345 343 346 352 355 357 358 360 361 362 362 362 361 361 361 361 360 359 356 353 352 349 346 343 341 338 336 336 336 336
323 319 313 307 294 289 292 302 301 306 309 314 318 316 318 320 329 327 339 344 343 345 348 348 357 357 358 360 361 361 361 361 361 361 361 359 358 355 353 350 346 343 342 340 337 337 337 337 337
328 325 306 299 293 293 293 302 304 308 312 318 316 321 321 324 331 326 341 343 343 343 344 349 356 356 357 360 360 360 360 361 361 361 360 358 357 356 353 350 347 343 341 339 338 338 339 338 339
320 317 310 294 292 298 301 305 307 309 316 319 319 317 325 333 330 330 348 344 341 340 345 354 356 355 356 357 359 359 360 360 361 361 359 357 356 355 352 350 348 346 342 341 341 341 340 340 342
325 312 295 292 296 301 305 307 308 306 310 315 317 318 321 331 332 342 347 346 341 337 347 352 356 356 355 356 357 358 359 358 360 360 359 358 356 354 352 350 348 347 347 344 343 345 345 346 346
310 308 295 292 297 303 306 307 307 305 308 314 316 317 319 331 330 332 342 342 343 339 348 350 357 356 355 355 354 355 357 357 358 358 358 357 355 353 352 350 348 348 348 347 347 346 347 347 347
310 303 296 296 297 300 304 307 305 305 307 310 317 318 319 326 329 331 335 340 342 346 346 346 351 354 356 354 353 352 353 354 355 355 355 354 353 352 351 349 348 348 348 348 348 347 348 348 348
312 307 302 304 301 301 308 308 306 305 307 313 316 312 313 327 330 330 330 332 342 348 347 345 346 349 350 350 354 353 352 352 352 352 353 352 352 351 350 348 347 348 348 348 348 348 348 348 348
312 302 299 301 303 305 311 309 314 314 310 312 313 315 326 330 331 328 323 328 345 347 346 345 344 344 345 346 351 353 353 353 352 351 352 349 344 343 344 346 346 348 348 349 349 349 349 349 349
304 298 301 308 309 308 310 310 312 311 309 309 311 317 326 329 327 322 322 322 338 344 346 345 344 342 339 343 344 345 345 345 346 345 344 343 338 335 342 343 348 347 348 348 349 350 350 348 342
303 299 305 307 311 312 311 311 314 310 307 308 309 312 321 326 326 325 322 323 333 344 348 348 345 343 339 337 340 344 343 343 343 341 340 340 339 335 339 335 339 337 345 340 344 344 344 341 340
297 303 306 307 310 310 309 312 311 312 311 314 314 314 315 316 322 324 323 324 328 333 340 346 346 342 338 337 341 342 340 341 340 341 338 338 337 334 333 333 331 332 336 336 335 338 340 338 338
298 300 303 307 309 309 310 308 309 310 315 317 317 316 314 314 318 324 325 331 331 333 334 337 345 345 341 340 342 342 341 340 339 339 339 338 338 334 333 331 331 332 333 336 333 333 336 337 337
297 300 301 303 303 304 306 308 309 311 315 316 317 315 314 315 316 320 321 326 329 332 337 336 336 339 349 345 343 344 344 344 342 341 341 339 337 336 333 331 332 332 332 335 334 331 333 335 336
297 293 297 300 302 301 304 301 303 311 313 312 313 315 316 316 316 317 321 322 328 330 334 332 332 336 351 347 347 350 346 344 345 343 343 341 338 337 335 334 333 333 334 332 334 331 332 334 336
292 291 285 295 300 302 301 294 303 307 308 310 313 314 316 316 316 316 321 322 328 331 329 335 337 348 351 350 349 349 351 350 347 345 345 345 341 338 338 336 334 335 334 333 333 332 331 333 335
289 283 287 291 297 298 298 295 302 306 306 307 309 310 314 315 317 317 320 320 326 328 328 329 338 350 352 353 351 350 349 347 345 343 342 348 344 342 340 339 337 333 335 333 333 333 332 331 330
285 286 289 289 293 294 293 294 300 304 305 305 307 308 312 314 316 317 321 322 323 329 329 333 334 337 349 353 350 348 345 344 340 340 341 345 347 345 340 340 338 339 335 334 332 329 331 329 331
293 291 290 293 297 294 293 294 296 300 301 303 305 306 308 311 314 317 319 321 322 328 330 330 331 332 340 338 341 337 336 334 335 338 339 342 350 347 344 342 340 339 335 333 332 331 328 328 329
292 289 288 292 296 294 293 292 296 298 299 301 301 305 307 310 312 315 317 318 324 324 332 331 332 334 334 335 333 331 329 330 331 333 339 343 347 347 344 341 340 339 337 334 333 332 328 327 327
290 288 289 289 293 294 292 290 292 297 299 301 303 304 307 307 309 312 313 317 322 327 329 331 331 333 334 332 333 332 331 330 332 335 338 344 347 347 346 342 340 339 337 335 333 332 327 324 326
287 294 293 292 289 283 291 281 289 293 295 298 300 302 303 305 307 311 311 313 322 326 328 329 330 331 333 333 330 330 330 327 327 331 342 343 345 345 344 343 340 340 341 337 336 334 330 329 325
291 295 292 291 288 286 287 283 288 292 292 294 297 300 302 305 306 308 310 314 318 323 326 329 332 331 330 333 332 331 329 330 331 336 341 341 341 343 345 343 340 341 341 339 336 334 330 330 327
296 292 291 289 286 280 285 285 285 289 292 295 298 300 302 304 308 308 310 312 314 317 317 321 328 331 331 331 335 333 332 332 335 337 339 337 336 338 341 342 341 342 341 338 334 333 332 332 330
291 285 278 276 277 278 287 284 286 292 296 297 298 299 302 303 304 308 309 310 311 310 312 315 321 322 330 332 333 333 330 332 335 337 338 336 334 334 337 338 339 341 341 338 337 337 333 331 328
287 287 281 274 275 278 288 283 286 294 297 301 302 301 302 302 304 305 308 311 312 313 314 315 318 322 327 332 337 336 334 338 338 341 338 337 336 335 338 342 341 341 340 338 338 334 332 331 329
287 285 290 285 284 282 283 287 292 297 297 299 299 301 301 301 305 307 308 308 311 311 312 314 316 327 332 334 333 337 335 336 340 338 338 337 337 338 340 343 340 339 338 336 333 332 331 330 328
289 292 283 282 277 275 280 282 284 291 293 296 296 298 300 304 306 306 309 310 313 315 318 319 322 325 327 328 333 337 339 344 342 339 336 338 339 339 339 340 339 337 335 334 332 330 330 328 327
288 285 289 287 284 278 277 280 293 292 294 294 296 298 300 304 305 308 308 316 327 326 318 322 326 332 333 336 339 341 342 345 344 340 339 340 341 340 340 338 336 334 333 332 330 328 329 328 327
293 289 286 282 280 285 282 280 296 294 295 296 296 299 301 303 306 305 309 321 325 327 327 328 334 337 338 340 340 341 342 345 342 341 341 340 339 338 338 336 335 334 332 330 329 327 328 326 325
Wind_Speed
5 7 3 3 4 2 6 9 12 17 14 11 13 9 6 5 9 6 9 12 17 18 16 18 23 21 20 19 18 16 15 14 13 12 12 12 12 12 11 11 11 10 9 8 7 6 6 6 5
5 7 2 3 4 3 7 17 20 21 20 9 9 6 8 4 4 12 12 22 19 17 16 16 23 21 20 19 18 17 16 15 13 13 13 13 12 12 12 11 10 10 9 8 8 7 6 5 5
4 4 2 4 4 10 7 9 11 16 18 5 4 6 4 5 5 16 13 22 19 14 14 16 23 22 21 19 19 18 17 16 15 15 14 14 13 12 11 11 11 10 9 9 9 7 7 6 4
3 2 4 1 10 13 23 17 17 18 11 4 7 6 7 5 8 11 20 21 18 13 12 20 23 22 21 20 19 19 18 18 17 15 15 15 14 12 11 11 11 11 11 10 10 9 7 6 5
2 3 2 4 11 16 18 16 14 15 17 2 3 2 10 2 15 23 20 19 20 15 12 17 22 22 21 21 20 19 18 17 16 16 16 15 14 13 12 12 11 11 11 12 11 10 8 7 6
3 2 2 6 15 17 18 11 16 7 15 8 4 4 5 14 23 18 18 16 17 18 15 15 19 20 20 20 20 18 18 17 16 16 15 15 15 15 14 14 13 13 12 12 12 11 10 9 7
6 2 6 9 15 16 19 9 8 7 12 9 2 1 1 6 13 16 18 18 17 15 15 14 13 15 19 19 19 18 17 16 16 15 15 15 15 15 15 14 14 13 13 12 12 11 11 10 9
2 3 7 9 12 21 18 9 8 6 11 8 5 5 3 6 12 13 11 14 16 15 14 13 13 11 11 11 16 16 15 15 15 15 15 15 15 15 15 14 14 14 14 13 13 12 12 11 9
4 6 10 13 15 19 17 12 16 11 6 7 4 1 4 6 9 16 8 10 12 12 14 13 12 10 9 8 11 14 16 14 14 14 15 12 7 8 11 12 15 15 15 14 14 13 12 11 10
7 8 19 14 14 15 14 13 16 12 12 9 9 4 4 7 14 10 9 11 15 15 15 16 15 12 10 9 8 7 8 7 7 9 9 8 6 6 10 12 16 16 16 15 14 13 12 11 4
7 18 14 18 18 19 18 17 17 15 12 10 8 11 10 5 12 9 7 8 16 18 13 17 17 16 15 10 7 6 6 6 7 9 9 8 7 6 7 5 7 6 14 6 10 8 6 6 4
19 16 18 20 22 23 22 14 18 17 14 10 10 6 3 13 9 8 9 9 10 3 11 8 7 12 13 8 9 8 7 7 7 9 11 8 6 7 7 6 7 7 6 7 6 5 6 6 7
18 16 17 18 21 24 23 23 20 22 16 16 17 11 9 8 16 7 7 11 10 12 11 11 15 12 8 11 8 9 9 9 9 9 11 10 9 9 8 7 6 8 8 8 7 7 8 8 10
7 13 16 17 19 19 20 22 20 23 16 17 16 11 10 7 9 8 2 10 10 16 5 13 6 9 14 12 11 10 9 10 9 9 11 15 11 9 9 9 8 8 9 9 9 9 9 9 9
10 13 15 15 15 16 10 18 26 18 19 18 21 20 13 7 10 10 11 7 12 15 23 21 10 8 11 13 9 8 9 8 10 10 12 14 13 11 12 8 10 8 9 10 9 7 6 7 8
7 7 6 2 9 14 9 24 21 9 12 18 16 17 21 11 8 9 10 6 8 17 21 14 14 9 10 10 8 8 7 6 6 6 8 12 14 14 11 9 8 9 7 9 7 8 7 8 8
6 6 10 14 13 12 10 25 26 18 17 17 20 21 18 20 11 10 11 10 8 11 11 12 16 20 17 11 7 7 7 6 5 5 5 11 14 14 12 9 8 8 6 7 7 5 8 7 5
8 9 10 10 6 8 13 23 16 14 20 21 17 11 14 13 22 14 10 10 10 10 11 10 9 13 16 11 7 4 4 4 4 5 5 8 11 15 13 8 7 7 7 5 3 4 4 4 5
11 13 12 14 13 14 12 20 17 14 16 16 20 20 18 19 21 13 15 15 9 8 10 12 11 10 8 4 5 3 5 3 3 5 9 9 11 13 12 8 7 6 6 6 6 4 5 1 3
11 14 12 13 10 16 13 22 18 15 16 16 14 19 21 16 11 12 17 11 9 9 11 11 11 10 7 5 3 4 4 4 4 5 8 8 9 12 11 9 7 6 5 6 6 5 3 2 3
11 12 12 17 15 15 10 20 23 21 16 17 19 11 9 14 17 15 13 10 8 10 12 11 10 11 8 9 3 2 1 2 2 2 5 6 10 12 12 10 7 6 5 5 5 6 7 4 2
7 15 15 16 14 10 4 19 16 17 20 15 16 14 10 10 9 14 13 10 9 10 13 14 11 11 10 10 7 9 8 6 5 4 4 5 8 9 9 9 7 6 5 5 5 5 4 4 4
9 13 17 15 16 15 14 11 14 8 15 13 13 17 18 12 10 11 11 11 9 10 9 8 10 11 10 12 12 9 6 5 4 3 7 6 5 7 9 9 7 6 4 4 6 6 6 4 4
11 7 11 5 5 13 17 13 20 13 17 17 14 19 19 18 16 12 12 9 9 9 10 10 14 15 15 13 12 12 11 8 5 4 5 4 4 4 7 7 6 6 5 5 5 6 7 5 4
4 6 5 5 3 10 13 14 19 14 18 15 13 13 18 15 16 19 17 14 11 9 9 9 10 12 11 12 12 12 10 10 9 7 7 9 4 3 6 6 5 4 4 5 6 6 6 6 4
3 1 4 5 7 13 15 11 9 11 8 18 22 20 19 17 15 14 12 20 18 17 17 11 11 12 10 12 12 10 11 7 5 8 8 7 6 6 7 6 6 6 6 5 5 4 4 6 5
4 5 13 11 13 7 6 8 15 14 18 19 21 23 25 24 25 24 13 7 7 9 11 13 10 10 12 11 8 8 8 8 7 9 9 7 7 6 7 8 7 6 6 7 7 5 5 5 4
8 5 7 4 4 5 4 14 4 13 17 19 21 22 26 25 26 18 6 5 5 5 6 9 10 13 11 10 8 8 8 8 11 12 10 9 8 7 7 8 7 7 7 7 7 5 5 6 4
11 3 4 2 5 2 5 2 2 5 7 12 15 19 24 26 21 19 6 4 2 4 6 8 10 11 9 9 8 9 8 12 12 11 9 9 9 8 9 8 7 8 8 7 6 5 6 6 6
5 6 4 2 3 3 7 8 4 5 1 6 11 15 21 22 20 17 24 4 3 3 4 10 9 11 10 9 8 8 7 11 11 10 10 9 10 8 9 8 9 8 7 7 7 7 6 7 6
Wind_Direction
297 278 258 303 50 106 251 251 240 269 274 252 238 100 109 117 144 194 126 123 138 149 158 155 145 145 146 144 141 140 136 140 141 140 137 134 135 139 140 141 140 141 141 139 138 133 129 121 112
311 279 265 264 129 248 268 241 250 245 252 264 75 36 50 49 91 109 109 142 149 156 155 155 146 147 148 145 142 141 143 145 145 147 148 146 148 153 158 156 154 153 156 155 151 152 142 134 124
284 260 82 166 201 231 249 252 280 290 301 111 63 54 31 124 121 140 130 135 136 153 158 156 149 152 151 149 146 145 149 151 153 156 157 160 162 166 171 166 164 166 171 170 167 162 162 156 147
280 301 301 66 258 259 240 273 287 296 302 97 125 109 84 144 124 143 135 133 131 152 165 155 153 155 152 152 150 153 158 160 160 163 165 169 173 175 179 178 176 177 180 183 179 174 174 175 181
179 280 227 246 253 260 266 266 275 311 300 169 114 141 121 99 115 131 138 140 141 159 158 155 157 158 156 156 156 162 163 164 164 168 174 176 177 180 183 185 188 189 189 189 191 178 177 194 195
302 184 301 238 259 263 276 300 323 314 329 288 116 166 183 149 135 148 144 144 148 153 150 155 158 159 159 159 162 167 165 168 170 175 179 179 181 185 186 189 193 194 198 198 198 185 187 194 203
219 286 234 255 274 291 282 304 280 287 305 303 294 252 211 136 147 146 153 149 148 142 145 152 155 162 161 166 166 171 171 172 174 178 181 183 187 191 192 194 199 199 200 204 206 195 195 200 205
209 214 256 262 263 270 281 288 275 277 283 293 14 24 24 120 165 146 146 143 140 140 142 149 153 159 161 164 171 170 174 177 179 183 188 188 193 195 198 197 204 204 204 203 210 204 203 207 210
277 242 240 234 243 262 283 307 309 304 285 312 318 327 149 92 182 165 152 132 128 142 148 149 154 158 160 154 174 171 180 184 187 191 195 192 194 193 200 199 207 209 210 209 213 210 208 213 217
203 227 233 246 251 258 278 291 299 329 331 319 324 338 119 88 146 167 161 168 157 159 166 158 155 161 162 171 168 168 179 178 191 194 191 190 187 189 196 204 209 213 212 212 216 215 212 218 207
231 240 248 256 259 269 274 273 284 291 298 282 298 350 342 167 165 196 213 181 173 175 166 162 160 163 165 180 164 181 184 188 194 195 191 192 190 199 203 200 208 206 213 208 213 215 211 210 204
248 245 238 256 268 280 280 297 294 296 290 268 287 306 4 330 255 219 194 202 19 157 126 115 140 158 169 171 174 182 181 190 194 200 192 186 194 194 202 200 195 188 197 198 198 200 202 207 211
257 269 266 250 250 261 274 270 272 278 284 293 283 291 291 288 295 211 159 81 79 55 3 128 145 157 200 178 177 179 190 192 196 193 199 195 196 200 197 203 187 188 188 193 199 201 202 206 222
292 285 270 263 260 259 256 260 267 266 270 275 280 267 261 256 270 275 267 153 142 128 141 285 211 174 182 186 186 187 189 195 190 195 199 201 200 196 197 204 201 186 191 189 198 204 198 208 212
319 304 296 275 273 276 287 271 246 256 263 263 275 283 273 229 265 275 254 208 140 173 188 199 214 197 156 200 193 187 189 187 193 198 198 197 198 197 198 198 206 195 189 190 196 207 200 201 219
290 285 298 301 271 275 264 267 262 266 258 254 259 269 276 252 246 258 254 256 175 179 176 191 188 187 189 202 207 203 190 187 195 194 196 197 199 197 196 201 201 198 180 192 181 200 208 210 210
254 258 265 275 258 266 232 251 256 256 256 262 245 246 260 270 250 247 245 234 206 180 183 172 174 184 189 192 209 209 192 196 209 209 198 199 195 194 198 197 193 189 196 188 182 187 205 210 201
249 261 263 261 290 269 266 267 267 248 238 244 252 252 250 255 260 244 237 239 210 195 176 171 166 165 182 176 180 200 206 213 200 209 218 186 195 193 191 188 174 175 198 195 174 167 187 169 174
287 292 293 306 324 322 298 290 295 299 298 272 241 240 240 242 242 261 253 243 242 212 184 172 162 172 149 150 166 182 209 203 213 214 222 203 191 191 179 179 180 175 177 190 181 166 178 132 148
324 315 309 309 321 305 312 295 296 294 291 295 283 252 237 233 233 242 249 239 233 215 190 168 168 171 172 155 167 152 179 205 190 212 224 198 172 173 177 172 172 179 162 179 176 154 123 128 160
296 294 302 291 290 268 295 286 292 291 277 284 287 272 272 245 247 244 245 246 219 188 178 179 181 179 169 184 138 149 27 335 273 258 233 196 168 166 166 167 174 174 171 173 175 155 150 154 197
344 336 324 325 333 298 272 281 278 293 296 297 292 292 265 255 267 254 246 232 189 207 183 184 185 181 185 181 177 183 201 200 226 196 208 166 157 153 148 156 166 169 190 164 164 155 145 125 172
302 319 310 305 296 304 292 276 282 288 281 282 286 285 289 271 240 246 241 221 210 175 186 188 184 192 196 200 197 191 190 191 201 201 161 143 139 144 150 164 164 159 166 155 153 151 164 161 152
334 324 315 310 296 269 271 268 277 266 276 280 280 286 290 292 275 237 237 245 221 203 188 187 190 200 199 196 190 184 178 183 187 164 141 130 125 130 141 146 144 153 158 160 174 168 165 170 156
320 1 316 313 276 261 265 254 250 265 262 283 295 294 289 277 278 287 255 239 238 222 217 205 194 206 199 198 193 193 172 184 184 171 152 145 141 144 155 140 157 151 173 176 169 158 161 152 161
208 190 261 280 275 283 304 281 263 287 256 17 359 328 308 292 277 268 256 240 235 230 232 198 194 205 191 191 189 177 175 175 176 160 154 151 155 154 162 161 161 166 171 162 138 133 145 154 173
285 225 246 283 274 274 244 273 281 4 5 1 356 342 333 322 310 270 250 225 207 209 211 201 188 189 180 170 155 160 167 162 152 142 150 153 153 166 165 160 160 162 156 137 135 141 156 169 175
257 250 308 291 267 263 295 299 302 359 348 352 349 339 328 318 317 273 236 266 266 244 210 200 179 170 161 150 151 159 164 156 154 152 155 160 161 164 150 139 153 155 135 135 140 152 172 172 183
308 351 37 152 284 293 298 275 324 23 344 343 327 332 323 307 306 318 239 215 177 330 243 178 155 141 147 149 152 151 169 161 154 156 158 158 153 146 143 147 130 130 138 148 140 176 185 175 175
78 127 138 274 272 221 262 266 227 155 2 277 323 332 307 298 308 331 316 247 267 291 184 148 134 139 140 143 144 154 150 143 139 144 139 135 138 131 138 136 143 147 153 164 157 166 169 176 184